Regional Weather Roundup
Issued by NWS

Home | Current Version | Previous Version | Text Only | Print | Product List | Glossary Off
Versions: 1 2 3 4 5 6 7 8 9 10 11 12 13 14 15 16 17 18 19 20 21 22 23 24 25 26 27 28 29 30 31 32 33 34 35 36 37 38 39 40 41 42 43 44 45 46 47 48 49 50

000
ASUS43 KLOT 160908
RWRIL

ILLINOIS REGIONAL WEATHER ROUNDUP
NATIONAL WEATHER SERVICE CHICAGO/ROMEOVILLE IL
300 AM CST SAT DEC 16 2017

NOTE: "FAIR" INDICATES FEW OR NO CLOUDS BELOW 12,000 FEET WITH NO
SIGNIFICANT WEATHER AND/OR OBSTRUCTIONS TO VISIBILITY.

* THESE STATIONS ARE NOT UNDER NWS QUALITY CONTROL. THEY ALSO MAY NOT
  REPORT WEATHER SUCH AS PRECIPITATION OR FOG.

ILZ001-002-007-009-015-016-024-161000-
NORTHWEST ILLINOIS

CITY           SKY/WX    TMP DP  RH WIND       PRES   REMARKS
MOLINE         CLOUDY    34  24  67 SW9       29.81F WCI  27
STERLING*      CLOUDY    35  24  64 VRB5      29.83F WCI  31
$$

ILZ003-004-008-010-011-017-018-161000-
NORTH CENTRAL ILLINOIS

CITY           SKY/WX    TMP DP  RH WIND       PRES   REMARKS
ROCKFORD       MOCLDY    35  22  58 SW12      29.83F WCI  27
$$

ILZ005-006-012>014-019>023-161000-
NORTHEAST ILLINOIS

CITY           SKY/WX    TMP DP  RH WIND       PRES   REMARKS
CHICAGO-OHARE  CLOUDY    37  22  54 SW16      29.83F WCI  28
CHICAGO-MIDWAY CLOUDY    38  23  55 SW12      29.86S WCI  30
AURORA         CLOUDY    35  23  61 S13       29.85S WCI  26
WAUKEGAN       CLOUDY    36  25  64 SW10      29.81F WCI  28
DUPAGE AIRPORT CLOUDY    35  23  61 SW14      29.84S WCI  26
WHEELING       CLOUDY    38  23  55 SW9G17    29.85S WCI  31
NORTHERLY ISL    N/A     37  21  52 S9          N/A  WCI  30
$$

LMZ740>746-161000-
SOUTHERN LAKE MICHIGAN

STATION/POSITION SKY/WX   TEMP    WIND        PRES    VSBY  WAVE
                          AIR SEA DIR/SP/G                  HT/PER
                          (F)     (DEG/KT/KT) (MB)    (MI)  (FT/S)
HARRISON CRIB              38     210/ 21/ 24   N/A
BURNHAM HARBOR             37     200/  5/ 12   N/A
CALUMET HARBOR             36     200/ 11/ 16 1010.8F
BURNS HARBOR               38     210/ 18/ 23 1011.9F
MICHIGAN CITY              36     190/ 16/ 18   N/A
$$

ILZ025>027-034>036-040-047-049-050-058-095>099-161000-
WEST-CENTRAL ILLINOIS

CITY           SKY/WX    TMP DP  RH WIND       PRES   REMARKS
QUINCY         CLEAR     35  25  66 S16       29.90S WCI  25
$$

ILZ028>032-037-038-041>044-048-051>054-059>061-161000-
CENTRAL ILLINOIS

CITY           SKY/WX    TMP DP  RH WIND       PRES   REMARKS
BLOOMINGTON    PTCLDY    32  24  72 S17       29.91F WCI  21
DECATUR        CLEAR     32  24  72 SW14      29.96F WCI  22
PEORIA         CLEAR     32  24  72 S10       29.89S WCI  24
SPRINGFIELD    CLEAR     34  25  69 S15G23    29.95S WCI  24
TAYLORVILLE    NOT AVBL
$$

ILZ033-039-045-046-055>057-062-063-161000-
EAST-CENTRAL ILLINOIS

CITY           SKY/WX    TMP DP  RH WIND       PRES   REMARKS
CHAMPAIGN      CLEAR     30  23  75 S14       29.96F WCI  19
MATTOON        CLEAR     32  25  75 S13       29.99F WCI  22
$$

ILZ079-100>102-161000-
SOUTHWEST ILLINOIS

CITY           SKY/WX    TMP DP  RH WIND       PRES   REMARKS
BELLEVILLE     PTCLDY    30  23  76 SW3       30.03F
CAHOKIA*       PTCLDY    35  24  64 S7        30.02F WCI  29
$$

ILZ064>066-069>071-074>076-080>082-084>086-088>090-092>094-161000-
SOUTH-CENTRAL ILLINOIS

CITY           SKY/WX    TMP DP  RH WIND       PRES   REMARKS
CARBONDALE     CLEAR     30  27  88 S6        30.11R WCI  24
MT. VERNON     PTCLDY    23  21  92 S3        30.08F
$$

ILZ067-068-072-073-078-083-087-091-161000-
SOUTHEAST ILLINOIS

CITY           SKY/WX    TMP DP  RH WIND       PRES   REMARKS
LAWRENCEVILLE  CLEAR     28  23  81 S9        30.08F WCI  19
$$

ABBREVIATIONS USED IN REMARKS
   TC - TEMPERATURE IN CELSIUS
  WCI - WIND CHILL INDEX
   HX - HEAT INDEX
  VSB - VISIBILITY
$$




USA.gov is the U.S. government's official web portal to all federal, state and local government web resources and services.